[[{"header":{"parameterUnit":"m.s-1","parameterCategory":1,"la1":30.2991,"la2":30.254,"lo1":-89.0895,"lo2":-89.0444,"dy":0.0017,"dx":0.0017,"nx":28,"ny":28,"refTime":"2025-07-23T03:00:00:Z","depth":0,"parameterNumber":2,"parameterNumberName":"U-component_of_WINDS"},"data":[0,0,0,0,0,0,0,0,0,0,0,0,0,0,0,0,0,0,0,0,0,0,0,0,0,0,0,0,0,0,0,0,0,0,0,0,0,0,0,0,0,0,0,0,0,0,0,0,0,0,0,0,0,0,0,0,0,0,2.9086,2.9087,0,2.9159,2.916,2.9161,2.9056,2.9053,2.9049,2.9046,2.9126,2.9131,2.9137,0,0,0,0,0,0,0,0,0,0,0,0,0,2.8861,2.8866,2.9086,2.9087,2.9088,2.9159,2.916,2.9161,2.9057,2.9053,2.9048,2.9044,2.9124,2.9131,2.9137,0,0,0,0,0,0,0,0,0,0,0,0,0,2.8949,2.8867,2.9086,2.9044,2.9041,2.9159,2.916,2.9161,2.9058,2.9052,2.9047,2.9042,2.9122,2.913,2.9138,2.9301,0,0,2.9164,2.9167,0,0,0,0,0,0,0,0,2.8944,2.8958,2.9049,2.9047,2.9044,2.9093,2.911,2.9208,2.9059,2.9052,2.9045,2.9039,2.912,2.9128,2.9154,2.9305,2.9308,2.9165,2.917,2.9173,2.9176,0,0,0,0,0,0,0,2.8938,2.8954,2.9115,2.9051,2.9048,2.9024,2.903,2.9128,2.9116,2.9052,2.9045,2.9055,2.9117,2.9146,2.9155,2.9309,2.9164,2.9172,2.9177,2.918,2.9598,2.9604,0,0,0,0,0,0,2.8936,2.8949,2.9112,2.9117,2.8979,2.9032,2.9039,2.9083,2.9115,2.9114,2.9059,2.9049,2.9135,2.9145,2.9158,2.935,2.9173,2.9181,2.9186,2.9592,2.96,2.9606,0,0,0,0,0,0,2.8932,2.8952,2.9109,2.9031,2.9049,2.9042,2.9092,2.9087,2.9116,2.912,2.9118,2.9091,2.9131,2.9146,2.9266,2.9352,2.9185,2.9192,2.9585,2.9595,2.9603,2.9737,0,0,0,0,0,0,2.8926,2.8951,2.9012,2.9033,2.9054,2.9216,2.9097,2.9093,2.913,2.9118,2.9149,2.9149,2.9127,2.9254,2.9274,2.936,2.9199,2.9577,2.9589,2.96,2.9725,2.975,2.9771,0,0,0,0,0,2.8918,2.9048,2.9015,2.9035,2.9129,2.9221,2.9233,2.9204,2.9137,2.9199,2.9202,2.9148,2.9339,2.9267,2.9289,2.9379,2.9572,2.9586,2.9599,2.9715,2.9745,2.9771,0,0,0,0,0,0,2.9038,2.905,2.9014,2.9153,2.9187,2.9203,2.9279,2.9237,2.929,2.9277,2.9241,2.9249,2.9377,2.939,2.931,2.9538,2.9445,2.9463,2.9525,2.9554,2.9576,2.9571,2.9206,0,0,0,0,0,2.908,2.9152,2.9159,2.9282,2.93,2.9287,2.9326,2.9301,2.9334,2.9348,2.936,2.9396,2.9464,2.951,2.9573,2.9727,2.9733,2.98,2.9822,2.9841,2.9858,2.9941,2.9971,2.9651,2.9651,2.9651,0,0,2.9169,2.9184,2.9232,2.9306,2.9328,2.9405,2.93,2.9385,2.9442,2.9362,2.9475,2.9485,2.9523,2.9661,2.9723,2.9676,2.9948,2.9859,2.9874,2.988,2.9958,2.9988,3.0015,2.966,2.9659,2.9657,0,0,2.9369,2.9388,2.9492,2.9517,2.9552,2.9542,2.9568,2.9591,2.9594,2.9707,2.9648,2.9717,2.9835,2.9864,2.9894,3.0107,3.006,3.0129,3.0249,3.033,3.0355,3.0377,3.0454,3.0481,3.0145,3.0146,3.0146,0,2.9475,2.9586,2.9551,2.9641,2.9675,2.9605,2.9711,2.9738,2.9793,2.9819,2.9766,2.9912,2.9933,3.0077,3.0129,3.0156,3.0184,3.0125,3.0354,3.0376,3.0396,3.0468,3.0497,3.0154,3.0153,3.0152,3.0151,0,2.9715,2.9794,2.9874,2.9927,2.9971,3.0068,3.005,3.0099,3.007,3.0068,3.0184,3.0207,3.0273,3.0305,3.0279,3.0447,3.0416,3.0359,3.0264,3.0435,3.0503,3.053,3.0166,3.0163,3.016,3.0158,0,0,2.9992,3.0025,3.0055,3.0078,3.0112,3.0173,3.0268,3.0331,3.0374,3.0415,3.0494,3.0596,3.0543,3.0578,3.0555,3.0626,3.0794,3.056,3.0561,3.0603,3.098,3.1022,3.1055,3.0763,3.0768,3.0772,3.0977,0,3.0192,3.0354,3.0326,3.0484,3.0556,3.0491,3.0574,3.0605,3.0605,3.0668,3.0669,3.0741,3.0666,3.0687,3.0755,3.0759,3.0869,3.0744,3.0837,3.0841,3.0829,3.109,3.1135,3.1327,3.1003,3.1007,3.1011,0,3.0446,3.0495,3.066,3.0683,3.0712,3.0787,3.0843,3.0903,3.0938,3.0933,3.0972,3.0936,3.1032,3.0936,3.1069,3.0985,3.1021,3.103,3.1036,3.1044,3.0936,3.1105,3.1388,3.1417,3.1052,3.1048,3.1045,0,3.0632,3.0739,3.0851,3.0873,3.0903,3.0957,3.0972,3.1001,3.1041,3.1091,3.1116,3.1178,3.1211,3.126,3.1242,3.1173,3.1379,3.1281,3.1379,3.138,3.1425,3.1422,3.1718,3.145,3.1449,3.1448,3.1448,0,3.0857,3.0961,3.0935,3.1004,3.1119,3.1086,3.1201,3.1209,3.1235,3.1306,3.1254,3.1322,3.1294,3.136,3.1347,3.146,3.1475,3.1475,3.147,3.148,3.148,3.1503,3.1489,3.1456,3.1454,3.1453,3.1452,0,3.1084,3.107,3.1188,3.1206,3.1214,3.1297,3.1314,3.1379,3.1376,3.1466,3.1486,3.1481,3.1556,3.1543,3.1627,3.1618,3.1759,3.1738,3.1747,3.1742,3.184,3.1831,3.2161,3.2203,3.1908,3.191,3.1913,0,3.1228,3.1306,3.1333,3.1375,3.1394,3.1464,3.1505,3.1477,3.1521,3.1566,3.1627,3.1698,3.1753,3.1878,3.1882,3.1947,3.1927,3.2038,3.1936,3.1943,3.1928,3.1924,3.1932,3.2058,3.2062,3.2064,3.2067,0,3.1486,3.1476,3.1535,3.1593,3.1642,3.1686,3.1726,3.1764,3.174,3.1793,3.1869,3.1911,3.1997,3.2068,3.2129,3.2146,3.2103,3.2099,3.2125,3.2135,3.2136,3.2137,3.1801,3.2091,3.2089,3.2087,3.2086,3.2085,3.1676,3.1742,3.1771,3.1839,3.1866,3.1904,3.1966,3.197,3.2033,3.2099,3.2079,3.2166,3.22,3.2276,3.23,3.2368,3.2327,3.2365,3.2374,3.2384,3.2396,3.2126,3.2379,3.2379,3.2378,3.2377,3.2377,0,3.1931,3.1946,3.2009,3.2066,3.212,3.2073,3.2115,3.2164,3.224,3.2274,3.2329,3.2417,3.2486,3.2497,3.2563,3.2616,3.2598,3.2634,3.263,3.2634,3.2429,3.24,3.2647,3.2647,3.2647,3.2647,3.2647,3.2647,3.207,3.218,3.2173,3.2296,3.2311,3.2394,3.2422,3.2458,3.2485,3.2585,3.2641,3.2647,3.2673,3.274,3.2802,3.2803,3.283,3.2874,3.2868,3.2676,3.2649,3.2623,3.2595,3.288,3.2881,3.3068,3.3069,3.3071]},{"header":{"parameterUnit":"m.s-1","parameterCategory":1,"la1":30.2991,"la2":30.254,"lo1":-89.0895,"lo2":-89.0444,"dy":0.0017,"dx":0.0017,"nx":28,"ny":28,"refTime":"2025-07-23T03:00:00:Z","depth":0,"parameterNumber":3,"parameterNumberName":"V-component_of_WINDS"},"data":[0,0,0,0,0,0,0,0,0,0,0,0,0,0,0,0,0,0,0,0,0,0,0,0,0,0,0,0,0,0,0,0,0,0,0,0,0,0,0,0,0,0,0,0,0,0,0,0,0,0,0,0,0,0,0,0,0,0,0.9928,0.9929,0,1.0018,1.0019,1.002,1.0021,1.002,1.0019,1.0018,1.011,1.0114,1.0117,0,0,0,0,0,0,0,0,0,0,0,0,0,0.9755,0.9759,0.9928,0.9929,0.993,1.0018,1.0019,1.002,1.0022,1.002,1.0019,1.0017,1.0109,1.0113,1.0118,0,0,0,0,0,0,0,0,0,0,0,0,0,0.9836,0.976,0.9928,0.9941,0.9943,1.0018,1.0019,1.0021,1.0022,1.002,1.0018,1.0017,1.0108,1.0113,1.0118,1.0185,0,0,1.0134,1.0137,0,0,0,0,0,0,0,0,0.9832,0.9843,0.9938,0.994,0.9943,1.0007,0.9992,1.0076,1.0022,0.9992,1.0018,1.0016,1.0077,1.0085,1.0106,1.0189,1.0193,1.0135,1.0138,1.014,1.0142,0,0,0,0,0,0,0,0.9826,0.9839,0.9963,0.9939,0.9942,0.9942,0.9952,1.0008,1.0043,0.9995,0.9995,1.0005,1.0078,1.0101,1.0108,1.0195,1.0135,1.0139,1.0143,1.0145,1.0335,1.0337,0,0,0,0,0,0,0.9818,0.9834,0.9961,0.9966,0.9882,0.9947,0.9958,0.9988,1.0042,1.0049,1.0007,1.0005,1.0092,1.0102,1.0111,1.0192,1.014,1.0145,1.0148,1.0334,1.0336,1.0338,0,0,0,0,0,0,0.9814,0.9829,0.9957,0.99,0.9917,0.9952,0.9986,0.9991,1.0013,1.0052,1.0058,1.0023,1.0091,1.0104,1.0166,1.0195,1.0148,1.0152,1.0331,1.0334,1.0337,1.0355,0,0,0,0,0,0,0.9809,0.9828,0.9854,0.9901,0.992,1.0011,0.9987,0.9994,1.0022,1.0021,1.0069,1.0075,1.0091,1.0158,1.0171,1.0202,1.0156,1.0329,1.0333,1.0336,1.0352,1.0358,1.0363,0,0,0,0,0,0.9803,0.9856,0.9855,0.9871,0.9953,1.0013,1.0023,1.0041,1.0024,1.0051,1.0075,1.0074,1.0189,1.0165,1.0179,1.0212,1.0327,1.0332,1.0336,1.0349,1.0357,1.0363,0,0,0,0,0,0,0.9812,0.9862,0.9862,0.9932,0.9968,1.0013,1.0047,1.0048,1.009,1.0087,1.0106,1.0117,1.0179,1.0201,1.0173,1.0278,1.0256,1.0264,1.0261,1.0269,1.0274,1.0268,1.0161,0,0,0,0,0,0.9822,0.9867,0.9908,0.9965,0.9983,1.0012,1.0039,1.0048,1.0087,1.0102,1.0131,1.0168,1.0213,1.0242,1.0285,1.0354,1.0364,1.0383,1.0389,1.0394,1.04,1.0437,1.0446,1.0352,1.0352,1.0352,0,0,0.9844,0.9876,0.9904,0.9968,0.9997,1.0042,1.0025,1.0074,1.0107,1.0109,1.017,1.0193,1.0235,1.0301,1.0331,1.0321,1.0428,1.0399,1.0402,1.0406,1.0442,1.0451,1.0459,1.0355,1.0354,1.0354,0,0,0.9906,0.9935,0.9986,1.0015,1.0059,1.0077,1.0089,1.0133,1.0148,1.0209,1.0211,1.0251,1.0328,1.0357,1.0383,1.0453,1.0453,1.0467,1.0497,1.0532,1.054,1.0546,1.0571,1.058,1.0473,1.0473,1.0473,0,0.9927,0.9996,1.0012,1.006,1.0088,1.0091,1.0142,1.0169,1.0225,1.0244,1.0232,1.0327,1.0356,1.0428,1.0445,1.0465,1.0479,1.0462,1.0537,1.0544,1.0551,1.0574,1.0584,1.0474,1.0474,1.0474,1.0474,0,1.0019,1.0066,1.0102,1.0155,1.0186,1.0236,1.0259,1.0289,1.0295,1.0314,1.0375,1.0409,1.0459,1.0477,1.0484,1.0549,1.0542,1.0533,1.0512,1.0561,1.0583,1.0593,1.0476,1.0476,1.0475,1.0475,0,0,1.0092,1.0151,1.0164,1.0188,1.0235,1.0272,1.032,1.0369,1.0394,1.0431,1.0472,1.0536,1.0528,1.0556,1.0566,1.0598,1.065,1.0585,1.0586,1.0596,1.0724,1.073,1.0741,1.065,1.0652,1.0653,1.072,0,1.0159,1.0246,1.0261,1.0337,1.038,1.0382,1.0424,1.0458,1.0476,1.0515,1.0535,1.058,1.0566,1.0583,1.0614,1.0637,1.0676,1.0633,1.0688,1.069,1.0678,1.0752,1.076,1.0822,1.0729,1.0731,1.0732,0,1.0249,1.0289,1.0369,1.0409,1.0428,1.0466,1.051,1.0547,1.0584,1.0595,1.0626,1.0632,1.0682,1.0657,1.0725,1.0695,1.0718,1.0733,1.0735,1.0742,1.0714,1.0761,1.0842,1.0851,1.0746,1.0745,1.0744,0,1.0294,1.0367,1.0424,1.0444,1.0492,1.0519,1.054,1.0575,1.0603,1.0641,1.0659,1.0703,1.0727,1.076,1.0777,1.0757,1.0844,1.0821,1.0854,1.0854,1.0873,1.0872,1.0959,1.0887,1.0887,1.0887,1.0887,0,1.0368,1.0417,1.0444,1.0479,1.0534,1.0549,1.0603,1.0623,1.0654,1.0693,1.0697,1.0733,1.0753,1.0792,1.0805,1.0859,1.087,1.088,1.0883,1.088,1.0879,1.0896,1.0893,1.0889,1.0889,1.0888,1.0888,0,1.0427,1.0448,1.051,1.055,1.0561,1.0599,1.0633,1.0667,1.0684,1.0733,1.0745,1.0773,1.0819,1.0838,1.0895,1.0904,1.0965,1.0965,1.0953,1.0954,1.0986,1.0983,1.1088,1.1102,1.1021,1.1021,1.1022,0,1.0473,1.0511,1.0554,1.058,1.0602,1.0644,1.0672,1.0688,1.0716,1.076,1.0789,1.0834,1.0872,1.0944,1.0969,1.1011,1.1012,1.1046,1.1019,1.1014,1.1013,1.101,1.1014,1.1051,1.1052,1.1053,1.1053,0,1.0553,1.056,1.06,1.0643,1.0675,1.071,1.0744,1.0765,1.0786,1.0817,1.0864,1.0893,1.0949,1.0994,1.1038,1.1059,1.106,1.1061,1.1071,1.1069,1.106,1.1065,1.0967,1.1059,1.1059,1.1058,1.1058,1.1058,1.0607,1.064,1.0675,1.0719,1.0745,1.0776,1.081,1.0831,1.087,1.0917,1.0924,1.0973,1.1008,1.1066,1.1089,1.1127,1.1119,1.1133,1.1137,1.1141,1.1143,1.1053,1.1135,1.1135,1.1135,1.1135,1.1135,0,1.0687,1.0709,1.0749,1.0795,1.0829,1.0826,1.0862,1.0891,1.0934,1.0966,1.1002,1.1055,1.1098,1.1125,1.1168,1.1194,1.1195,1.1204,1.1203,1.1208,1.1148,1.1135,1.1203,1.1203,1.1203,1.1202,1.1202,1.1202,1.0732,1.0787,1.0799,1.0867,1.0889,1.0937,1.0958,1.0986,1.1012,1.107,1.1106,1.1123,1.1153,1.1198,1.1236,1.1243,1.1259,1.1269,1.1275,1.1219,1.1212,1.1205,1.1193,1.1272,1.1272,1.1332,1.1333,1.1333]}]]